Snel-info
Kleurcode:
Geel
Er mag gevlogen worden.
Voorzichtigheid geboden!
Laatste update: 26/09/2018
Kleurcode informatie

Grasmaaien:

Geen maaibeurten gepland.

Volgende vliegdagen:

  • do 1 november : Allerheiligen
  • vr 2 november : Allerzielen
  • do 15 november : Koningsdag
Alle extra vliegdagen

Weersituatie op PMF:

Leeuwarden2006__0638.jpg

Huidige weersituatie

Huidig weerbeeld in Kleine Brogel, Belgium
Huidige wind in Kleine Brogel, Belgium

Dit is het bericht voor Kleine Brogel, Belgium en werd een moment geleden gemaakt.
De wind waaide met een snelheid van 7.2 meter per seconde (25.9 km/h) uit het west/zuidwesten (240°).
De temperatuur was 10 °C. De atmosferische druk was 1027 hPa. De relative luchtvochtigheid was 76.2%.
Het was licht bewolkt op een hoogte van 732 meter, zwaar bewolkt op een hoogte van 3962 meter, en zwaar bewolkt op een hoogte van 6096 meter. Het algemene zicht was meer dan 10 kilometer.

De onbewerkte METAR gegevens waarop dit bericht is gebaseerd zijn:
EBBL 230903Z 24014KT 9999 FEW024 BKN130 BKN200 10/06 Q1027 BLU BLU TEMPO WHT


Opmerking:
De wind blijkt op PMF meestal iets krachtiger te waaien dan op Kleine Brogel. De windrichting klopt dan weer wel.




KMI

De weersvoorspellingen van het KMI vind je via deze link.


Buienradar

Op www.buienradar.nl kun je zelf zien waar het nu en de komende uren regent.